| time (UTC) | temp F | wind direction | speed MPH | gust MPH | rain 1hr in | rain 24hr in | rain mn in | humidity % | barometer mb |
| 20260507013617 | 65 | 251 | 4.0 | 6.0 | 0.00 | 0.00 | 0.00 | 69 | 1015.1 |
| 20260507013120 | 64 | 238 | 3.0 | 8.0 | 0.00 | 0.00 | 0.00 | 68 | 1015.1 |
| 20260507012627 | 64 | 236 | 5.0 | 9.0 | 0.00 | 0.00 | 0.00 | 68 | 1015.1 |
| 20260507012123 | 65 | 240 | 5.0 | 9.0 | 0.00 | 0.00 | 0.00 | 67 | 1015.1 |
| 20260507011633 | 65 | 254 | 6.0 | 8.0 | 0.00 | 0.00 | 0.00 | 67 | 1015.1 |
| 20260507011115 | 65 | 241 | 5.0 | 8.0 | 0.00 | 0.00 | 0.00 | 67 | 1015.2 |
| 20260507010622 | 65 | 277 | 3.0 | 8.0 | 0.00 | 0.00 | 0.00 | 66 | 1015.2 |
| 20260507010115 | 66 | 236 | 4.0 | 10.0 | 0.00 | 0.00 | 0.00 | 64 | 1015.2 |
| 20260507005618 | 66 | 249 | 6.0 | 9.0 | 0.00 | 0.00 | 0.00 | 62 | 1015.2 |
| 20260507005110 | 67 | 271 | 4.0 | 8.0 | 0.00 | 0.00 | 0.00 | 63 | 1015.2 |
| 20260507004607 | 67 | 221 | 3.0 | 10.0 | 0.00 | 0.00 | 0.00 | 63 | 1015.2 |
| 20260507004114 | 67 | 213 | 5.0 | 10.0 | 0.00 | 0.00 | 0.00 | 63 | 1015.3 |
| 20260507003608 | 66 | 198 | 5.0 | 14.0 | 0.00 | 0.00 | 0.00 | 63 | 1015.3 |
| 20260507003104 | 66 | 285 | 5.0 | 14.0 | 0.00 | 0.00 | 0.00 | 62 | 1015.3 |
| 20260507002610 | 67 | 226 | 5.0 | 11.0 | 0.00 | 0.00 | 0.00 | 61 | 1015.2 |
| 20260507002108 | 67 | 267 | 4.0 | 11.0 | 0.00 | 0.00 | 0.00 | 61 | 1015.2 |
| 20260507001617 | 68 | 254 | 5.0 | 10.0 | 0.00 | 0.00 | 0.00 | 60 | 1015.2 |
| 20260507001116 | 67 | 261 | 5.0 | 10.0 | 0.00 | 0.00 | 0.00 | 60 | 1015.2 |
| 20260507000611 | 67 | 238 | 3.0 | 10.0 | 0.00 | 0.00 | 0.00 | 59 | 1015.2 |
| 20260507000114 | 67 | 214 | 6.0 | 11.0 | 0.00 | 0.00 | 0.00 | 59 | 1015.2 |
| 20260506235609 | 67 | 210 | 6.0 | 11.0 | 0.00 | 0.00 | 0.00 | 56 | 1015.3 |
| 20260506235111 | 68 | 228 | 6.0 | 10.0 | 0.00 | 0.00 | 0.00 | 56 | 1015.3 |
| 20260506234627 | 68 | 246 | 6.0 | 13.0 | 0.00 | 0.00 | 0.00 | 57 | 1015.3 |
| 20260506234116 | 68 | 238 | 6.0 | 12.0 | 0.00 | 0.00 | 0.00 | 57 | 1015.3 |
| 20260506233608 | 68 | 292 | 6.0 | 12.0 | 0.00 | 0.00 | 0.00 | 57 | 1015.3 |
| 20260506233107 | 67 | 286 | 7.0 | 14.0 | 0.00 | 0.00 | 0.00 | 58 | 1015.3 |
| 20260506232603 | 67 | 259 | 8.0 | 16.0 | 0.00 | 0.00 | 0.00 | 58 | 1015.5 |
| 20260506232104 | 68 | 235 | 10.0 | 16.0 | 0.00 | 0.00 | 0.00 | 58 | 1015.5 |
| 20260506231557 | 67 | 244 | 7.0 | 14.0 | 0.00 | 0.00 | 0.00 | 58 | 1015.5 |
| 20260506224655 | 68 | 235 | 7.0 | 11.0 | 0.00 | 0.00 | 0.00 | 59 | 1015.7 |
| 20260506224140 | 68 | 232 | 6.0 | 13.0 | 0.00 | 0.00 | 0.00 | 59 | 1016.0 |
| 20260506223636 | 68 | 254 | 8.0 | 13.0 | 0.00 | 0.00 | 0.00 | 59 | 1016.0 |
| 20260506223133 | 68 | 237 | 7.0 | 13.0 | 0.00 | 0.00 | 0.00 | 59 | 1016.0 |
| 20260506222616 | 68 | 225 | 6.0 | 13.0 | 0.00 | 0.00 | 0.00 | 59 | 1016.2 |
| 20260506222117 | 68 | 230 | 7.0 | 14.0 | 0.00 | 0.00 | 0.00 | 59 | 1016.2 |
| 20260506221627 | 69 | 286 | 8.0 | 14.0 | 0.00 | 0.00 | 0.00 | 58 | 1016.2 |
| 20260506221138 | 69 | 220 | 6.0 | 12.0 | 0.00 | 0.00 | 0.00 | 58 | 1016.6 |
| 20260506220631 | 69 | 238 | 5.0 | 14.0 | 0.00 | 0.00 | 0.00 | 56 | 1016.6 |
| 20260506220116 | 69 | 231 | 7.0 | 12.0 | 0.00 | 0.00 | 0.00 | 57 | 1016.6 |
| 20260506215621 | 69 | 279 | 6.0 | 12.0 | 0.00 | 0.00 | 0.00 | 57 | 1016.7 |
| 20260506215122 | 69 | 320 | 6.0 | 12.0 | 0.00 | 0.00 | 0.00 | 58 | 1016.7 |
| 20260506214632 | 69 | 236 | 7.0 | 12.0 | 0.00 | 0.00 | 0.00 | 57 | 1016.7 |
| 20260506214117 | 69 | 246 | 5.0 | 10.0 | 0.00 | 0.00 | 0.00 | 57 | 1016.7 |
| 20260506213615 | 70 | 213 | 6.0 | 12.0 | 0.00 | 0.00 | 0.00 | 57 | 1016.7 |
| 20260506213135 | 69 | 252 | 5.0 | 15.0 | 0.00 | 0.00 | 0.00 | 58 | 1016.7 |
| 20260506212641 | 69 | 214 | 6.0 | 15.0 | 0.00 | 0.00 | 0.00 | 57 | 1016.8 |
| 20260506212135 | 69 | 213 | 8.0 | 14.0 | 0.00 | 0.00 | 0.00 | 56 | 1016.8 |
| 20260506211617 | 70 | 262 | 4.0 | 12.0 | 0.00 | 0.00 | 0.00 | 57 | 1016.8 |
| 20260506211113 | 70 | 217 | 7.0 | 12.0 | 0.00 | 0.00 | 0.00 | 56 | 1017.1 |
| 20260506210616 | 69 | 233 | 4.0 | 12.0 | 0.00 | 0.00 | 0.00 | 57 | 1017.1 |
| 20260506210110 | 69 | 238 | 7.0 | 12.0 | 0.00 | 0.00 | 0.00 | 57 | 1017.1 |
| 20260506205603 | 69 | 215 | 6.0 | 13.0 | 0.00 | 0.00 | 0.00 | 56 | 1017.1 |
| 20260506205112 | 69 | 250 | 6.0 | 13.0 | 0.00 | 0.00 | 0.00 | 57 | 1017.1 |
| 20260506204614 | 69 | 234 | 8.0 | 11.0 | 0.00 | 0.00 | 0.00 | 53 | 1017.1 |
| 20260506204111 | 69 | 242 | 5.0 | 12.0 | 0.00 | 0.00 | 0.00 | 55 | 1017.1 |
| 20260506203613 | 69 | 237 | 5.0 | 12.0 | 0.00 | 0.00 | 0.00 | 57 | 1017.1 |
| 20260506203113 | 68 | 176 | 6.0 | 11.0 | 0.00 | 0.00 | 0.00 | 58 | 1017.1 |
| 20260506202611 | 68 | 163 | 5.0 | 13.0 | 0.00 | 0.00 | 0.00 | 56 | 1017.2 |
| 20260506202112 | 68 | 207 | 6.0 | 14.0 | 0.00 | 0.00 | 0.00 | 58 | 1017.2 |
| 20260506201610 | 68 | 212 | 6.0 | 14.0 | 0.00 | 0.00 | 0.00 | 59 | 1017.2 |
| 20260506201100 | 68 | 200 | 7.0 | 14.0 | 0.00 | 0.00 | 0.00 | 57 | 1017.4 |
| 20260506200609 | 68 | 240 | 7.0 | 14.0 | 0.00 | 0.00 | 0.00 | 58 | 1017.4 |
| 20260506200113 | 68 | 229 | 6.0 | 11.0 | 0.00 | 0.00 | 0.00 | 58 | 1017.4 |
| 20260506195614 | 68 | 218 | 4.0 | 13.0 | 0.00 | 0.00 | 0.00 | 58 | 1017.5 |
| 20260506195119 | 68 | 240 | 7.0 | 13.0 | 0.00 | 0.00 | 0.00 | 60 | 1017.5 |
| 20260506194627 | 68 | 225 | 6.0 | 11.0 | 0.00 | 0.00 | 0.00 | 58 | 1017.5 |
| 20260506194126 | 68 | 209 | 6.0 | 12.0 | 0.00 | 0.00 | 0.00 | 59 | 1017.6 |
| 20260506193620 | 68 | 201 | 6.0 | 12.0 | 0.00 | 0.00 | 0.00 | 60 | 1017.6 |
| 20260506193113 | 68 | 213 | 5.0 | 10.0 | 0.00 | 0.00 | 0.00 | 61 | 1017.6 |
| 20260506192608 | 67 | 236 | 5.0 | 12.0 | 0.00 | 0.00 | 0.00 | 61 | 1017.7 |
| 20260506192105 | 68 | 164 | 5.0 | 13.0 | 0.00 | 0.00 | 0.00 | 60 | 1017.7 |
| 20260506191600 | 68 | 182 | 7.0 | 13.0 | 0.00 | 0.00 | 0.00 | 60 | 1017.7 |
| 20260506191055 | 68 | 209 | 5.0 | 13.0 | 0.00 | 0.00 | 0.00 | 60 | 1017.7 |
| 20260506190604 | 68 | 239 | 5.0 | 11.0 | 0.00 | 0.00 | 0.00 | 60 | 1017.7 |
| 20260506190100 | 67 | 246 | 5.0 | 12.0 | 0.00 | 0.00 | 0.00 | 61 | 1017.7 |
| 20260506185601 | 67 | 226 | 6.0 | 12.0 | 0.00 | 0.00 | 0.00 | 61 | 1017.7 |
| 20260506185111 | 67 | 313 | 4.0 | 12.0 | 0.00 | 0.00 | 0.00 | 62 | 1017.7 |
| 20260506184612 | 67 | 225 | 4.0 | 12.0 | 0.00 | 0.00 | 0.00 | 61 | 1017.7 |
| 20260506184109 | 67 | 217 | 6.0 | 12.0 | 0.00 | 0.00 | 0.00 | 61 | 1017.7 |
| 20260506183605 | 67 | 202 | 4.0 | 12.0 | 0.00 | 0.00 | 0.00 | 61 | 1017.7 |
| 20260506183113 | 67 | 181 | 7.0 | 12.0 | 0.00 | 0.00 | 0.00 | 62 | 1017.7 |
| 20260506182616 | 67 | 164 | 7.0 | 11.0 | 0.00 | 0.00 | 0.00 | 62 | 1017.8 |
| 20260506182100 | 67 | 200 | 4.0 | 11.0 | 0.00 | 0.00 | 0.00 | 62 | 1017.8 |
| 20260506181608 | 67 | 217 | 6.0 | 15.0 | 0.00 | 0.00 | 0.00 | 62 | 1017.8 |
| 20260506181110 | 67 | 215 | 7.0 | 15.0 | 0.00 | 0.00 | 0.00 | 62 | 1017.9 |
| 20260506180614 | 67 | 279 | 6.0 | 11.0 | 0.00 | 0.00 | 0.00 | 62 | 1017.9 |
| 20260506180116 | 67 | 211 | 4.0 | 9.0 | 0.00 | 0.00 | 0.00 | 63 | 1017.9 |
| 20260506175619 | 67 | 230 | 3.0 | 9.0 | 0.00 | 0.00 | 0.00 | 63 | 1018.0 |
| 20260506175123 | 67 | 190 | 4.0 | 9.0 | 0.00 | 0.00 | 0.00 | 62 | 1018.0 |
| 20260506174625 | 67 | 196 | 4.0 | 9.0 | 0.00 | 0.00 | 0.00 | 63 | 1018.0 |
| 20260506174139 | 67 | 211 | 4.0 | 9.0 | 0.00 | 0.00 | 0.00 | 62 | 1017.8 |
| 20260506173658 | 68 | 261 | 4.0 | 10.0 | 0.00 | 0.00 | 0.00 | 62 | 1017.8 |
| 20260506173200 | 68 | 230 | 5.0 | 10.0 | 0.00 | 0.00 | 0.00 | 62 | 1017.8 |
| 20260506172655 | 68 | 174 | 4.0 | 8.0 | 0.00 | 0.00 | 0.00 | 62 | 1017.7 |
| 20260506172138 | 68 | 198 | 2.0 | 7.0 | 0.00 | 0.00 | 0.00 | 61 | 1017.7 |
| 20260506171634 | 67 | 190 | 4.0 | 7.0 | 0.00 | 0.00 | 0.00 | 61 | 1017.7 |
| 20260506171125 | 67 | 230 | 2.0 | 7.0 | 0.00 | 0.00 | 0.00 | 62 | 1017.7 |
| 20260506170632 | 66 | 153 | 3.0 | 7.0 | 0.00 | 0.00 | 0.00 | 63 | 1017.7 |
| 20260506170153 | 66 | 215 | 1.0 | 5.0 | 0.00 | 0.00 | 0.00 | 63 | 1017.7 |
| 20260506165635 | 65 | 261 | 2.0 | 8.0 | 0.00 | 0.00 | 0.00 | 62 | 1017.8 |
| 20260506165129 | 65 | 188 | 4.0 | 10.0 | 0.00 | 0.00 | 0.00 | 63 | 1017.8 |
| 20260506164635 | 66 | 223 | 4.0 | 10.0 | 0.00 | 0.00 | 0.00 | 62 | 1017.8 |
| 20260506164151 | 66 | 200 | 2.0 | 6.0 | 0.00 | 0.00 | 0.00 | 63 | 1017.8 |
| 20260506163157 | 65 | 150 | 1.0 | 6.0 | 0.00 | 0.00 | 0.00 | 65 | 1017.8 |
| 20260506162653 | 64 | 277 | 3.0 | 7.0 | 0.00 | 0.00 | 0.00 | 66 | 1017.8 |
| 20260506162149 | 64 | 281 | 3.0 | 7.0 | 0.00 | 0.00 | 0.00 | 67 | 1017.8 |
| 20260506161652 | 64 | 254 | 2.0 | 5.0 | 0.00 | 0.00 | 0.00 | 67 | 1017.8 |
| 20260506161150 | 63 | 200 | 0.0 | 5.0 | 0.00 | 0.00 | 0.00 | 68 | 1017.7 |
| 20260506160637 | 63 | 260 | 2.0 | 5.0 | 0.00 | 0.00 | 0.00 | 68 | 1017.7 |
| 20260506160136 | 63 | 261 | 2.0 | 5.0 | 0.00 | 0.00 | 0.00 | 68 | 1017.7 |
| 20260506155620 | 62 | 290 | 0.0 | 5.0 | 0.00 | 0.00 | 0.00 | 67 | 1017.7 |
| 20260506155113 | 62 | 249 | 1.0 | 4.0 | 0.00 | 0.00 | 0.00 | 67 | 1017.7 |
| 20260506154619 | 62 | 217 | 2.0 | 4.0 | 0.00 | 0.00 | 0.00 | 68 | 1017.7 |
| 20260506154116 | 62 | 288 | 2.0 | 4.0 | 0.00 | 0.00 | 0.00 | 68 | 1017.7 |
| 20260506153615 | 61 | 40 | 1.0 | 4.0 | 0.00 | 0.00 | 0.00 | 67 | 1017.7 |
| 20260506153108 | 61 | 10 | 2.0 | 4.0 | 0.00 | 0.00 | 0.00 | 67 | 1017.7 |
| 20260506152601 | 61 | 30 | 2.0 | 4.0 | 0.00 | 0.00 | 0.00 | 69 | 1017.7 |
| 20260506152101 | 60 | 37 | 2.0 | 5.0 | 0.00 | 0.00 | 0.00 | 70 | 1017.7 |
| 20260506151609 | 60 | 9 | 2.0 | 5.0 | 0.00 | 0.00 | 0.00 | 71 | 1017.7 |
| 20260506151115 | 59 | 5 | 2.0 | 4.0 | 0.00 | 0.00 | 0.00 | 72 | 1017.7 |
| 20260506150607 | 58 | 49 | 2.0 | 4.0 | 0.00 | 0.00 | 0.00 | 73 | 1017.7 |
| 20260506150118 | 58 | 339 | 3.0 | 5.0 | 0.00 | 0.00 | 0.00 | 74 | 1017.7 |
| 20260506145602 | 57 | 14 | 2.0 | 5.0 | 0.00 | 0.00 | 0.00 | 75 | 1017.7 |
| 20260506145054 | 57 | 346 | 3.0 | 5.0 | 0.00 | 0.00 | 0.00 | 76 | 1017.7 |
| 20260506144624 | 56 | 53 | 2.0 | 5.0 | 0.00 | 0.00 | 0.00 | 77 | 1017.7 |
| 20260506144111 | 56 | 355 | 3.0 | 5.0 | 0.00 | 0.00 | 0.00 | 78 | 1017.6 |
| 20260506143603 | 55 | 346 | 2.0 | 6.0 | 0.00 | 0.00 | 0.00 | 79 | 1017.6 |
| 20260506143108 | 55 | 360 | 1.0 | 5.0 | 0.00 | 0.00 | 0.00 | 80 | 1017.6 |
| 20260506142607 | 54 | 360 | 3.0 | 5.0 | 0.00 | 0.00 | 0.00 | 81 | 1017.5 |
| 20260506142114 | 54 | 355 | 1.0 | 4.0 | 0.00 | 0.00 | 0.00 | 82 | 1017.5 |
| 20260506141616 | 53 | 340 | 2.0 | 4.0 | 0.00 | 0.00 | 0.00 | 83 | 1017.5 |
| 20260506141108 | 53 | 17 | 2.0 | 5.0 | 0.00 | 0.00 | 0.00 | 84 | 1017.4 |
| 20260506140602 | 52 | 5 | 1.0 | 5.0 | 0.00 | 0.00 | 0.00 | 85 | 1017.4 |
| 20260506140113 | 51 | 11 | 3.0 | 5.0 | 0.00 | 0.00 | 0.00 | 85 | 1017.4 |
| 20260506135616 | 51 | 351 | 1.0 | 5.0 | 0.00 | 0.00 | 0.00 | 86 | 1017.2 |
| 20260506135125 | 51 | 360 | 3.0 | 5.0 | 0.00 | 0.00 | 0.00 | 86 | 1017.2 |
| 20260506134640 | 51 | 5 | 0.0 | 3.0 | 0.00 | 0.00 | 0.00 | 86 | 1017.2 |
| 20260506134144 | 51 | 44 | 1.0 | 4.0 | 0.00 | 0.00 | 0.00 | 86 | 1017.2 |
| 20260506133636 | 51 | 13 | 2.0 | 4.0 | 0.00 | 0.00 | 0.00 | 86 | 1017.2 |
| 20260506133119 | 51 | 46 | 2.0 | 4.0 | 0.00 | 0.00 | 0.00 | 86 | 1017.2 |
| 20260506132623 | 51 | 29 | 1.0 | 4.0 | 0.00 | 0.00 | 0.00 | 86 | 1017.2 |
| 20260506132132 | 51 | 350 | 1.0 | 4.0 | 0.00 | 0.00 | 0.00 | 86 | 1017.2 |
| 20260506131626 | 51 | 360 | 3.0 | 4.0 | 0.00 | 0.00 | 0.00 | 86 | 1017.2 |
| 20260506131129 | 51 | 10 | 1.0 | 4.0 | 0.00 | 0.00 | 0.00 | 86 | 1017.1 |
| 20260506130643 | 51 | 355 | 1.0 | 4.0 | 0.00 | 0.00 | 0.00 | 86 | 1017.1 |
| 20260506130146 | 51 | 24 | 1.0 | 5.0 | 0.00 | 0.00 | 0.00 | 86 | 1017.1 |
| 20260506125155 | 50 | 343 | 2.0 | 4.0 | 0.00 | 0.00 | 0.00 | 87 | 1017.0 |
| 20260506124155 | 50 | 17 | 2.0 | 5.0 | 0.00 | 0.00 | 0.00 | 86 | 1016.9 |
| 20260506122656 | 51 | 360 | 3.0 | 5.0 | 0.00 | 0.00 | 0.00 | 86 | 1016.7 |
| 20260506122151 | 51 | 5 | 4.0 | 5.0 | 0.00 | 0.00 | 0.00 | 86 | 1016.7 |
| 20260506121638 | 51 | 355 | 3.0 | 7.0 | 0.00 | 0.00 | 0.00 | 86 | 1016.7 |
| 20260506121135 | 51 | 13 | 5.0 | 7.0 | 0.00 | 0.00 | 0.00 | 86 | 1016.6 |
| 20260506120616 | 51 | 13 | 4.0 | 6.0 | 0.00 | 0.00 | 0.00 | 86 | 1016.6 |
| 20260506120119 | 51 | 360 | 4.0 | 5.0 | 0.00 | 0.00 | 0.00 | 86 | 1016.6 |
| 20260506115622 | 51 | 40 | 3.0 | 5.0 | 0.00 | 0.00 | 0.00 | 86 | 1016.6 |
| 20260506115125 | 51 | 5 | 2.0 | 5.0 | 0.00 | 0.00 | 0.00 | 86 | 1016.6 |
| 20260506114639 | 51 | 20 | 3.0 | 5.0 | 0.00 | 0.00 | 0.00 | 86 | 1016.6 |
| 20260506114155 | 51 | 360 | 3.0 | 5.0 | 0.00 | 0.00 | 0.00 | 86 | 1016.4 |
| 20260506113143 | 51 | 5 | 3.0 | 5.0 | 0.00 | 0.00 | 0.00 | 86 | 1016.4 |
| 20260506112641 | 51 | 13 | 1.0 | 4.0 | 0.00 | 0.00 | 0.00 | 86 | 1016.5 |
| 20260506112145 | 51 | 40 | 2.0 | 6.0 | 0.00 | 0.00 | 0.00 | 86 | 1016.5 |
| 20260506111636 | 51 | 360 | 3.0 | 7.0 | 0.00 | 0.00 | 0.00 | 86 | 1016.5 |
| 20260506111118 | 51 | 15 | 4.0 | 7.0 | 0.00 | 0.00 | 0.00 | 86 | 1016.5 |
| 20260506110614 | 51 | 350 | 5.0 | 7.0 | 0.00 | 0.00 | 0.00 | 86 | 1016.5 |
| 20260506110113 | 51 | 330 | 5.0 | 8.0 | 0.00 | 0.00 | 0.00 | 86 | 1016.5 |
| 20260506105617 | 51 | 12 | 5.0 | 8.0 | 0.00 | 0.00 | 0.00 | 86 | 1016.3 |
| 20260506105111 | 51 | 360 | 5.0 | 7.0 | 0.00 | 0.00 | 0.00 | 86 | 1016.3 |
| 20260506104618 | 51 | 355 | 3.0 | 5.0 | 0.00 | 0.00 | 0.00 | 86 | 1016.3 |
| 20260506104111 | 51 | 331 | 1.0 | 5.0 | 0.00 | 0.00 | 0.00 | 85 | 1016.3 |
| 20260506103616 | 52 | 355 | 3.0 | 5.0 | 0.00 | 0.00 | 0.00 | 85 | 1016.3 |
| 20260506103107 | 52 | 5 | 3.0 | 5.0 | 0.00 | 0.00 | 0.00 | 85 | 1016.3 |
| 20260506102611 | 52 | 36 | 1.0 | 3.0 | 0.00 | 0.00 | 0.00 | 85 | 1016.4 |
| 20260506102112 | 52 | 30 | 1.0 | 3.0 | 0.00 | 0.00 | 0.00 | 84 | 1016.4 |
| 20260506101607 | 52 | 36 | 1.0 | 3.0 | 0.00 | 0.00 | 0.00 | 84 | 1016.4 |
| 20260506101107 | 53 | 29 | 1.0 | 3.0 | 0.00 | 0.00 | 0.00 | 84 | 1016.2 |
| 20260506100616 | 53 | 42 | 0.0 | 3.0 | 0.00 | 0.00 | 0.00 | 84 | 1016.2 |
| 20260506100124 | 53 | 59 | 0.0 | 3.0 | 0.00 | 0.00 | 0.00 | 84 | 1016.2 |
| 20260506095626 | 53 | 63 | 1.0 | 3.0 | 0.00 | 0.00 | 0.00 | 84 | 1016.6 |
| 20260506095119 | 53 | 56 | 1.0 | 5.0 | 0.00 | 0.00 | 0.00 | 84 | 1016.6 |
| 20260506094626 | 53 | 71 | 1.0 | 5.0 | 0.00 | 0.00 | 0.00 | 84 | 1016.6 |
| 20260506094143 | 53 | 61 | 2.0 | 5.0 | 0.00 | 0.00 | 0.00 | 83 | 1016.7 |
| 20260506093657 | 53 | 33 | 2.0 | 5.0 | 0.00 | 0.00 | 0.00 | 83 | 1016.7 |
| 20260506093152 | 54 | 360 | 3.0 | 6.0 | 0.00 | 0.00 | 0.00 | 83 | 1016.7 |
| 20260506092636 | 54 | 43 | 2.0 | 6.0 | 0.00 | 0.00 | 0.00 | 83 | 1016.7 |
| 20260506092118 | 54 | 50 | 1.0 | 4.0 | 0.00 | 0.00 | 0.00 | 84 | 1016.7 |
| 20260506091624 | 54 | 67 | 1.0 | 5.0 | 0.00 | 0.00 | 0.00 | 84 | 1016.7 |
| 20260506091128 | 54 | 69 | 2.0 | 5.0 | 0.00 | 0.00 | 0.00 | 84 | 1016.7 |
| 20260506090613 | 54 | 90 | 1.0 | 5.0 | 0.00 | 0.00 | 0.00 | 84 | 1016.7 |
| 20260506090137 | 54 | 67 | 1.0 | 3.0 | 0.00 | 0.00 | 0.00 | 84 | 1016.7 |
| 20260506085631 | 54 | 71 | 1.0 | 3.0 | 0.00 | 0.00 | 0.00 | 84 | 1016.8 |
| 20260506085137 | 54 | 78 | 1.0 | 4.0 | 0.00 | 0.00 | 0.00 | 84 | 1016.8 |
| 20260506084632 | 54 | 65 | 1.0 | 3.0 | 0.00 | 0.00 | 0.00 | 84 | 1016.8 |
| 20260506084116 | 54 | 78 | 0.0 | 3.0 | 0.00 | 0.00 | 0.00 | 84 | 1016.8 |
| 20260506083620 | 54 | 79 | 1.0 | 4.0 | 0.00 | 0.00 | 0.00 | 85 | 1016.8 |
| 20260506083111 | 54 | 77 | 2.0 | 4.0 | 0.00 | 0.00 | 0.00 | 85 | 1016.8 |
| 20260506082614 | 54 | 45 | 3.0 | 4.0 | 0.00 | 0.00 | 0.00 | 85 | 1017.0 |
| 20260506082109 | 54 | 65 | 1.0 | 4.0 | 0.00 | 0.00 | 0.00 | 85 | 1017.0 |
| 20260506081609 | 54 | 49 | 1.0 | 4.0 | 0.00 | 0.00 | 0.00 | 85 | 1017.0 |
| 20260506081104 | 54 | 78 | 0.0 | 3.0 | 0.00 | 0.00 | 0.00 | 85 | 1016.9 |
| 20260506080558 | 54 | 78 | 1.0 | 5.0 | 0.00 | 0.00 | 0.00 | 85 | 1016.9 |
| 20260506080110 | 54 | 70 | 2.0 | 5.0 | 0.00 | 0.00 | 0.00 | 85 | 1016.9 |
| 20260506073120 | 54 | 78 | 3.0 | 4.0 | 0.00 | 0.00 | 0.00 | 84 | 1016.7 |
| 20260506072611 | 54 | 72 | 2.0 | 4.0 | 0.00 | 0.00 | 0.00 | 83 | 1016.7 |
| 20260506072114 | 54 | 92 | 2.0 | 5.0 | 0.00 | 0.00 | 0.00 | 83 | 1016.7 |
| 20260506071617 | 54 | 79 | 2.0 | 4.0 | 0.00 | 0.00 | 0.00 | 83 | 1016.7 |
| 20260506071130 | 54 | 73 | 2.0 | 4.0 | 0.00 | 0.00 | 0.00 | 83 | 1016.6 |
| 20260506070614 | 55 | 85 | 2.0 | 4.0 | 0.00 | 0.00 | 0.00 | 83 | 1016.6 |
| 20260506070114 | 55 | 90 | 2.0 | 4.0 | 0.00 | 0.00 | 0.00 | 82 | 1016.6 |
| 20260506062109 | 56 | 105 | 2.0 | 3.0 | 0.00 | 0.00 | 0.00 | 81 | 1016.0 |
| 20260506061602 | 56 | 105 | 1.0 | 4.0 | 0.00 | 0.00 | 0.00 | 81 | 1016.0 |
| 20260506061113 | 56 | 84 | 2.0 | 4.0 | 0.00 | 0.00 | 0.00 | 81 | 1016.0 |
| 20260506060608 | 56 | 96 | 1.0 | 4.0 | 0.00 | 0.00 | 0.00 | 82 | 1016.0 |
| 20260506060116 | 56 | 92 | 2.0 | 5.0 | 0.00 | 0.00 | 0.00 | 81 | 1016.0 |
| 20260506051117 | 57 | 217 | 0.0 | 3.0 | 0.00 | 0.00 | 0.00 | 82 | 1015.5 |
| 20260506050615 | 57 | 209 | 1.0 | 3.0 | 0.00 | 0.00 | 0.00 | 82 | 1015.5 |
| 20260506050117 | 57 | 229 | 0.0 | 4.0 | 0.00 | 0.00 | 0.00 | 82 | 1015.5 |
| 20260506045118 | 57 | 205 | 1.0 | 5.0 | 0.00 | 0.00 | 0.00 | 82 | 1015.3 |
| 20260506044608 | 57 | 174 | 2.0 | 5.0 | 0.00 | 0.00 | 0.00 | 82 | 1015.3 |
| 20260506044107 | 57 | 232 | 2.0 | 5.0 | 0.00 | 0.00 | 0.00 | 81 | 1015.2 |
| 20260506043611 | 57 | 212 | 2.0 | 6.0 | 0.00 | 0.00 | 0.00 | 81 | 1015.2 |
| 20260506043110 | 57 | 197 | 2.0 | 6.0 | 0.00 | 0.00 | 0.00 | 81 | 1015.2 |
| 20260506042616 | 57 | 217 | 3.0 | 6.0 | 0.00 | 0.00 | 0.00 | 81 | 1015.1 |
| 20260506042117 | 58 | 205 | 1.0 | 4.0 | 0.00 | 0.00 | 0.00 | 80 | 1015.1 |
| 20260506041619 | 58 | 219 | 1.0 | 5.0 | 0.00 | 0.00 | 0.00 | 80 | 1015.1 |
| 20260506041112 | 58 | 188 | 3.0 | 5.0 | 0.00 | 0.00 | 0.00 | 80 | 1014.9 |
| 20260506040605 | 58 | 210 | 2.0 | 5.0 | 0.00 | 0.00 | 0.00 | 80 | 1014.9 |
| 20260506040109 | 58 | 211 | 1.0 | 5.0 | 0.00 | 0.00 | 0.00 | 80 | 1014.9 |
| 20260506035605 | 58 | 223 | 1.0 | 5.0 | 0.00 | 0.00 | 0.00 | 80 | 1014.6 |
| 20260506035115 | 58 | 213 | 2.0 | 4.0 | 0.00 | 0.00 | 0.00 | 79 | 1014.6 |
| 20260506034607 | 58 | 210 | 2.0 | 5.0 | 0.00 | 0.00 | 0.00 | 79 | 1014.6 |
| 20260506034109 | 58 | 211 | 3.0 | 5.0 | 0.00 | 0.00 | 0.00 | 79 | 1014.5 |
| 20260506033608 | 58 | 210 | 2.0 | 5.0 | 0.00 | 0.00 | 0.00 | 79 | 1014.5 |
| 20260506033118 | 58 | 216 | 1.0 | 7.0 | 0.00 | 0.00 | 0.00 | 79 | 1014.5 |
| 20260506032620 | 58 | 240 | 4.0 | 7.0 | 0.00 | 0.00 | 0.00 | 79 | 1014.1 |
| 20260506032143 | 58 | 215 | 2.0 | 5.0 | 0.00 | 0.00 | 0.00 | 79 | 1014.1 |
| 20260506031647 | 58 | 207 | 1.0 | 6.0 | 0.00 | 0.00 | 0.00 | 78 | 1014.1 |
| 20260506031202 | 58 | 177 | 3.0 | 6.0 | 0.00 | 0.00 | 0.00 | 78 | 1014.0 |
| 20260506030159 | 59 | 173 | 4.0 | 8.0 | 0.00 | 0.00 | 0.00 | 76 | 1014.0 |
| 20260506025655 | 59 | 197 | 4.0 | 8.0 | 0.00 | 0.00 | 0.00 | 76 | 1013.5 |
| 20260506025149 | 59 | 212 | 3.0 | 7.0 | 0.00 | 0.00 | 0.00 | 74 | 1013.5 |
| 20260506024655 | 60 | 205 | 4.0 | 7.0 | 0.00 | 0.00 | 0.00 | 74 | 1013.5 |
| 20260506024150 | 60 | 213 | 4.0 | 7.0 | 0.00 | 0.00 | 0.00 | 73 | 1013.5 |
| 20260506023700 | 60 | 209 | 4.0 | 8.0 | 0.00 | 0.00 | 0.00 | 72 | 1013.5 |
| 20260506023143 | 61 | 267 | 4.0 | 9.0 | 0.00 | 0.00 | 0.00 | 71 | 1013.5 |
| 20260506022640 | 61 | 238 | 4.0 | 9.0 | 0.00 | 0.00 | 0.00 | 70 | 1013.4 |
| 20260506022157 | 62 | 240 | 5.0 | 9.0 | 0.00 | 0.00 | 0.00 | 69 | 1013.4 |
| 20260506021643 | 62 | 260 | 4.0 | 9.0 | 0.00 | 0.00 | 0.00 | 68 | 1013.4 |
| 20260506021133 | 63 | 232 | 4.0 | 9.0 | 0.00 | 0.00 | 0.00 | 67 | 1013.3 |
| 20260506020615 | 63 | 186 | 4.0 | 8.0 | 0.00 | 0.00 | 0.00 | 66 | 1013.3 |
| 20260506020111 | 63 | 219 | 4.0 | 9.0 | 0.00 | 0.00 | 0.00 | 66 | 1013.3 |
| 20260506015617 | 63 | 227 | 6.0 | 9.0 | 0.00 | 0.00 | 0.00 | 65 | 1013.2 |
| 20260506015111 | 63 | 238 | 5.0 | 11.0 | 0.00 | 0.00 | 0.00 | 65 | 1013.2 |
| 20260506014616 | 63 | 218 | 6.0 | 11.0 | 0.00 | 0.00 | 0.00 | 64 | 1013.2 |
| 20260506014114 | 64 | 265 | 4.0 | 12.0 | 0.00 | 0.00 | 0.00 | 64 | 1013.3 |